| time (UTC) | temp F | wind direction | speed MPH | gust MPH | rain 1hr in | rain 24hr in | rain mn in | humidity % | barometer mb |
| 20260502163609 | 60 | 56 | 5.0 | 12.0 | 0.00 | 0.00 | 0.00 | 47 | 1020.3 |
| 20260502162548 | 61 | 25 | 5.0 | 9.0 | 0.00 | 0.00 | 0.00 | 46 | 1020.3 |
| 20260502161526 | 60 | 47 | 5.0 | 9.0 | 0.00 | 0.00 | 0.00 | 46 | 1020.2 |
| 20260502160524 | 60 | 54 | 5.0 | 12.0 | 0.00 | 0.00 | 0.00 | 48 | 1020.2 |
| 20260502151534 | 59 | 39 | 4.0 | 10.0 | 0.00 | 0.00 | 0.00 | 54 | 1020.3 |
| 20260502150533 | 58 | 40 | 5.0 | 8.0 | 0.00 | 0.00 | 0.00 | 54 | 1020.3 |
| 20260502130530 | 50 | 51 | 2.0 | 5.0 | 0.00 | 0.00 | 0.00 | 70 | 1019.4 |
| 20260502123524 | 46 | 53 | 3.0 | 7.0 | 0.00 | 0.00 | 0.00 | 78 | 1019.3 |
| 20260502122523 | 44 | 47 | 3.0 | 5.0 | 0.00 | 0.00 | 0.00 | 80 | 1019.2 |
| 20260502121521 | 43 | 107 | 2.0 | 4.0 | 0.00 | 0.00 | 0.00 | 83 | 1018.9 |
| 20260502120519 | 42 | 323 | 1.0 | 2.0 | 0.00 | 0.00 | 0.00 | 84 | 1018.9 |
| 20260502115517 | 42 | 77 | 1.0 | 3.0 | 0.00 | 0.00 | 0.00 | 83 | 1018.8 |
| 20260502114555 | 42 | 60 | 2.0 | 4.0 | 0.00 | 0.00 | 0.00 | 83 | 1018.7 |
| 20260502113554 | 43 | 43 | 2.0 | 4.0 | 0.00 | 0.00 | 0.00 | 83 | 1018.6 |
| 20260502112532 | 43 | 29 | 2.0 | 5.0 | 0.00 | 0.00 | 0.00 | 82 | 1018.5 |
| 20260502111530 | 43 | 64 | 2.0 | 4.0 | 0.00 | 0.00 | 0.00 | 83 | 1018.5 |
| 20260502110528 | 42 | 55 | 1.0 | 4.0 | 0.00 | 0.00 | 0.00 | 85 | 1018.5 |
| 20260502105526 | 42 | 128 | 2.0 | 3.0 | 0.00 | 0.00 | 0.00 | 84 | 1018.3 |
| 20260502104544 | 42 | 42 | 2.0 | 3.0 | 0.00 | 0.00 | 0.00 | 85 | 1018.3 |
| 20260502103522 | 42 | 100 | 1.0 | 3.0 | 0.00 | 0.00 | 0.00 | 86 | 1018.1 |
| 20260502102521 | 41 | 15 | 4.0 | 6.0 | 0.00 | 0.00 | 0.00 | 87 | 1018.1 |
| 20260502100537 | 41 | 35 | 3.0 | 6.0 | 0.00 | 0.00 | 0.00 | 88 | 1017.9 |
| 20260502091528 | 42 | 83 | 1.0 | 2.0 | 0.00 | 0.00 | 0.00 | 85 | 1017.6 |
| 20260502090526 | 42 | 54 | 2.0 | 2.0 | 0.00 | 0.00 | 0.00 | 86 | 1017.5 |
| 20260502070523 | 43 | 73 | 1.0 | 2.0 | 0.00 | 0.00 | 0.00 | 83 | 1017.6 |
| 20260502065522 | 43 | 74 | 2.0 | 2.0 | 0.00 | 0.00 | 0.00 | 83 | 1017.5 |
| 20260502064520 | 43 | 66 | 2.0 | 2.0 | 0.00 | 0.00 | 0.00 | 82 | 1017.6 |
| 20260502063518 | 43 | 72 | 0.0 | 2.0 | 0.00 | 0.00 | 0.00 | 82 | 1017.7 |
| 20260502062516 | 43 | 76 | 2.0 | 3.0 | 0.00 | 0.00 | 0.00 | 82 | 1017.8 |
| 20260502061534 | 44 | 69 | 1.0 | 2.0 | 0.00 | 0.00 | 0.00 | 81 | 1017.8 |
| 20260502060532 | 45 | 68 | 1.0 | 2.0 | 0.00 | 0.00 | 0.00 | 81 | 1017.9 |
| 20260502055530 | 45 | 80 | 2.0 | 3.0 | 0.00 | 0.00 | 0.00 | 80 | 1017.9 |
| 20260502054529 | 45 | 73 | 1.0 | 2.0 | 0.00 | 0.00 | 0.00 | 79 | 1017.9 |
| 20260502053527 | 45 | 70 | 1.0 | 2.0 | 0.00 | 0.00 | 0.00 | 77 | 1017.9 |
| 20260502052525 | 46 | 59 | 2.0 | 3.0 | 0.00 | 0.00 | 0.00 | 75 | 1017.9 |
| 20260502051523 | 46 | 80 | 1.0 | 2.0 | 0.00 | 0.00 | 0.00 | 73 | 1017.7 |
| 20260502050541 | 47 | 76 | 1.0 | 2.0 | 0.00 | 0.00 | 0.00 | 71 | 1017.8 |
| 20260502045539 | 47 | 76 | 1.0 | 2.0 | 0.00 | 0.00 | 0.00 | 69 | 1017.7 |
| 20260502044518 | 47 | 80 | 1.0 | 2.0 | 0.00 | 0.00 | 0.00 | 68 | 1017.8 |
| 20260502043516 | 47 | 78 | 1.0 | 2.0 | 0.00 | 0.00 | 0.00 | 70 | 1017.7 |
| 20260502042534 | 48 | 98 | 2.0 | 2.0 | 0.00 | 0.00 | 0.00 | 66 | 1017.8 |
| 20260502041532 | 48 | 86 | 1.0 | 2.0 | 0.00 | 0.00 | 0.00 | 63 | 1017.9 |
| 20260502040530 | 48 | 90 | 2.0 | 2.0 | 0.00 | 0.00 | 0.00 | 63 | 1017.9 |
| 20260502035528 | 48 | 77 | 2.0 | 2.0 | 0.00 | 0.00 | 0.00 | 62 | 1018.0 |
| 20260502034526 | 49 | 64 | 1.0 | 2.0 | 0.00 | 0.00 | 0.00 | 60 | 1018.0 |
| 20260502033525 | 49 | 68 | 1.0 | 2.0 | 0.00 | 0.00 | 0.00 | 60 | 1018.1 |
| 20260502032523 | 50 | 83 | 2.0 | 2.0 | 0.00 | 0.00 | 0.00 | 59 | 1018.2 |
| 20260502031521 | 50 | 80 | 2.0 | 2.0 | 0.00 | 0.00 | 0.00 | 59 | 1018.2 |
| 20260502030519 | 50 | 86 | 2.0 | 2.0 | 0.00 | 0.00 | 0.00 | 58 | 1018.2 |
| 20260502025517 | 51 | 79 | 1.0 | 2.0 | 0.00 | 0.00 | 0.00 | 58 | 1018.1 |
| 20260502024535 | 51 | 91 | 2.0 | 2.0 | 0.00 | 0.00 | 0.00 | 56 | 1018.1 |
| 20260502023533 | 51 | 83 | 2.0 | 2.0 | 0.00 | 0.00 | 0.00 | 55 | 1018.0 |
| 20260502022531 | 52 | 71 | 1.0 | 2.0 | 0.00 | 0.00 | 0.00 | 52 | 1018.0 |
| 20260502021529 | 53 | 66 | 1.0 | 2.0 | 0.00 | 0.00 | 0.00 | 51 | 1017.8 |
| 20260502020528 | 53 | 83 | 1.0 | 2.0 | 0.00 | 0.00 | 0.00 | 50 | 1017.8 |
| 20260502015526 | 54 | 81 | 2.0 | 2.0 | 0.00 | 0.00 | 0.00 | 48 | 1017.6 |
| 20260502014524 | 55 | 66 | 1.0 | 3.0 | 0.00 | 0.00 | 0.00 | 48 | 1017.5 |
| 20260502013522 | 56 | 78 | 2.0 | 2.0 | 0.00 | 0.00 | 0.00 | 44 | 1017.3 |
| 20260502012520 | 57 | 50 | 1.0 | 2.0 | 0.00 | 0.00 | 0.00 | 40 | 1017.2 |
| 20260502011539 | 58 | 53 | 1.0 | 3.0 | 0.00 | 0.00 | 0.00 | 39 | 1017.0 |
| 20260502010517 | 58 | 57 | 1.0 | 3.0 | 0.00 | 0.00 | 0.00 | 37 | 1016.8 |
| 20260502005535 | 59 | 44 | 2.0 | 4.0 | 0.00 | 0.00 | 0.00 | 37 | 1016.7 |
| 20260502004533 | 59 | 48 | 2.0 | 4.0 | 0.00 | 0.00 | 0.00 | 35 | 1016.6 |
| 20260502003531 | 60 | 56 | 2.0 | 4.0 | 0.00 | 0.00 | 0.00 | 35 | 1016.4 |
| 20260502002549 | 61 | 56 | 3.0 | 5.0 | 0.00 | 0.00 | 0.00 | 33 | 1016.2 |
| 20260502001527 | 61 | 33 | 3.0 | 5.0 | 0.00 | 0.00 | 0.00 | 32 | 1016.1 |
| 20260502000525 | 61 | 68 | 5.0 | 10.0 | 0.00 | 0.00 | 0.00 | 33 | 1016.0 |
| 20260501235524 | 61 | 48 | 2.0 | 4.0 | 0.00 | 0.00 | 0.00 | 33 | 1016.1 |
| 20260501234521 | 62 | 70 | 3.0 | 9.0 | 0.00 | 0.00 | 0.00 | 32 | 1016.1 |
| 20260501233520 | 62 | 64 | 4.0 | 8.0 | 0.00 | 0.00 | 0.00 | 32 | 1016.3 |
| 20260501232518 | 62 | 18 | 4.0 | 10.0 | 0.00 | 0.00 | 0.00 | 30 | 1016.3 |
| 20260501231516 | 63 | 33 | 3.0 | 7.0 | 0.00 | 0.00 | 0.00 | 31 | 1016.2 |
| 20260501230534 | 63 | 41 | 4.0 | 9.0 | 0.00 | 0.00 | 0.00 | 31 | 1016.1 |
| 20260501225532 | 63 | 52 | 3.0 | 7.0 | 0.00 | 0.00 | 0.00 | 31 | 1016.1 |
| 20260501224531 | 63 | 47 | 4.0 | 9.0 | 0.00 | 0.00 | 0.00 | 32 | 1016.1 |
| 20260501223529 | 64 | 51 | 4.0 | 8.0 | 0.00 | 0.00 | 0.00 | 32 | 1016.1 |
| 20260501222527 | 65 | 41 | 4.0 | 11.0 | 0.00 | 0.00 | 0.00 | 31 | 1016.1 |
| 20260501221525 | 65 | 44 | 4.0 | 9.0 | 0.00 | 0.00 | 0.00 | 30 | 1016.0 |
| 20260501220523 | 65 | 57 | 4.0 | 9.0 | 0.00 | 0.00 | 0.00 | 31 | 1016.0 |
| 20260501215521 | 65 | 40 | 4.0 | 9.0 | 0.00 | 0.00 | 0.00 | 32 | 1015.9 |
| 20260501214519 | 65 | 16 | 4.0 | 8.0 | 0.00 | 0.00 | 0.00 | 30 | 1016.0 |
| 20260501213517 | 65 | 31 | 6.0 | 11.0 | 0.00 | 0.00 | 0.00 | 30 | 1016.0 |
| 20260501212515 | 65 | 58 | 5.0 | 15.0 | 0.00 | 0.00 | 0.00 | 32 | 1016.4 |
| 20260501211534 | 64 | 58 | 4.0 | 9.0 | 0.00 | 0.00 | 0.00 | 31 | 1016.5 |
| 20260501210532 | 64 | 64 | 5.0 | 10.0 | 0.00 | 0.00 | 0.00 | 31 | 1016.9 |
| 20260501205530 | 66 | 24 | 3.0 | 9.0 | 0.00 | 0.00 | 0.00 | 34 | 1017.0 |
| 20260501204528 | 64 | 50 | 4.0 | 9.0 | 0.00 | 0.00 | 0.00 | 33 | 1017.3 |
| 20260501203526 | 65 | 71 | 5.0 | 10.0 | 0.00 | 0.00 | 0.00 | 31 | 1017.4 |
| 20260501202525 | 65 | 41 | 4.0 | 6.0 | 0.00 | 0.00 | 0.00 | 31 | 1017.8 |
| 20260501201523 | 65 | 25 | 2.0 | 6.0 | 0.00 | 0.00 | 0.00 | 32 | 1017.8 |
| 20260501200521 | 65 | 48 | 5.0 | 7.0 | 0.00 | 0.00 | 0.00 | 30 | 1018.1 |
| 20260501195519 | 66 | 42 | 3.0 | 7.0 | 0.00 | 0.00 | 0.00 | 32 | 1018.2 |
| 20260501194537 | 65 | 34 | 3.0 | 8.0 | 0.00 | 0.00 | 0.00 | 28 | 1018.4 |
| 20260501193515 | 65 | 33 | 3.0 | 7.0 | 0.00 | 0.00 | 0.00 | 33 | 1018.6 |
| 20260501192553 | 67 | 43 | 3.0 | 8.0 | 0.00 | 0.00 | 0.00 | 32 | 1018.5 |
| 20260501191532 | 65 | 42 | 3.0 | 8.0 | 0.00 | 0.00 | 0.00 | 32 | 1018.6 |
| 20260501190530 | 64 | 43 | 4.0 | 9.0 | 0.00 | 0.00 | 0.00 | 32 | 1018.6 |
| 20260501185528 | 63 | 54 | 5.0 | 12.0 | 0.00 | 0.00 | 0.00 | 31 | 1018.6 |
| 20260501184526 | 64 | 56 | 4.0 | 8.0 | 0.00 | 0.00 | 0.00 | 32 | 1018.7 |
| 20260501183524 | 66 | 33 | 3.0 | 6.0 | 0.00 | 0.00 | 0.00 | 30 | 1018.7 |
| 20260501182522 | 64 | 280 | 2.0 | 5.0 | 0.00 | 0.00 | 0.00 | 36 | 1019.0 |
| 20260501181541 | 64 | 53 | 4.0 | 9.0 | 0.00 | 0.00 | 0.00 | 32 | 1019.0 |
| 20260501180519 | 64 | 342 | 3.0 | 6.0 | 0.00 | 0.00 | 0.00 | 34 | 1018.9 |
| 20260501175516 | 63 | 30 | 4.0 | 9.0 | 0.00 | 0.00 | 0.00 | 32 | 1019.0 |
| 20260501174535 | 62 | 42 | 4.0 | 9.0 | 0.00 | 0.00 | 0.00 | 33 | 1018.8 |
| 20260501173533 | 62 | 50 | 3.0 | 8.0 | 0.00 | 0.00 | 0.00 | 34 | 1019.0 |
| 20260501172551 | 63 | 67 | 3.0 | 7.0 | 0.00 | 0.00 | 0.00 | 34 | 1019.2 |
| 20260501171529 | 62 | 66 | 5.0 | 8.0 | 0.00 | 0.00 | 0.00 | 35 | 1019.1 |